Lid_Strength_Index
-1 -1 -1 -1 -2 -2 -2 -1 -2 -1 -1 -1 -1 -1 -1 -1 -1 -1 -1 -3 -2 -1 -1 -1 -1 -1 -1 -2 -2 -2 -2 -1 -2 -2 -2 -2 -2 -2 -2 -2 -2 -1 -1
-1 -1 -1 -1 -2 -1 -1 -1 -1 -0 -0 -1 -1 -1 -1 -1 -1 -1 -1 -2 -3 -2 -1 -1 -1 -1 -1 -2 -2 -2 -2 -2 -2 -2 -2 -2 -2 -2 -2 -2 -2 -2 -2
-2 -2 -1 -1 -1 -2 -2 -2 -1 -1 -1 -1 -1 -1 -1 -1 -1 -1 -1 -1 -1 -2 -1 -2 -1 -2 -1 -1 -1 -1 -1 -2 -2 -2 -2 -2 -2 -2 -2 -2 -2 -2 -2
-2 -2 -1 -1 -1 -1 -1 -1 -1 -0 -0 -0 -0 -0 -1 -1 -1 -1 -1 -1 -1 -1 -2 -2 -2 -2 -1 -1 -1 -1 -1 -1 -1 -2 -2 -2 -2 -2 -2 -2 -2 -1 -1
-2 -1 -1 -1 -2 -1 -1 -1 -0 -0 0 0 0 -0 -0 -0 -1 -1 -1 -1 -2 -1 -1 -2 -2 -2 -2 -1 -1 -1 -1 -2 -2 -2 -1 -1 -1 -2 -2 -2 -2 -1 -1
-2 -1 -1 -1 -1 -1 -0 -0 -0 -0 0 0 0 0 -0 -1 -1 -1 -1 -1 -1 -1 -1 -2 -1 -1 -2 -2 -1 -1 -1 -1 -2 -2 -2 -2 -1 -1 -1 -2 -2 -2 -2
-2 -2 -1 -1 -1 -0 -1 -1 -0 0 1 -0 1 1 0 -0 -0 -0 -1 -1 -1 -1 -1 -0 -0 -0 -1 -2 -1 -1 -1 -1 -1 -2 -2 -2 -2 -1 -1 -1 -1 -2 -2
-2 -1 -1 -1 -1 -0 -1 -1 -0 1 1 0 2 2 3 2 1 0 -0 -0 -1 -1 -1 -1 -1 -1 -2 -2 -2 -1 -1 -1 -2 -1 -1 -2 -2 -2 -2 -1 -1 -1 -1
-2 -2 -2 -1 -1 -1 0 -0 -0 0 2 0 0 2 4 5 3 1 0 0 -0 -0 -1 -1 -1 -1 -2 -2 -2 -2 -1 -1 -2 -2 -2 -2 -2 -2 -2 -2 -2 -1 -1
-1 -2 -2 -1 -1 -1 -0 -0 -0 -0 0 2 1 0 0 1 4 5 1 1 0 0 0 -0 -1 -1 -2 -2 -3 -2 -1 -2 -2 -2 -2 -2 -2 -2 -2 -2 -2 -2 -2
-1 -1 -2 -1 -1 -0 -1 -1 -1 -0 0 1 2 1 1 1 1 3 5 3 1 1 0 -0 -0 -1 -2 -2 -2 -2 -3 -2 -3 -2 -2 -2 -2 -2 -2 -2 -2 -2 -2
-0 -1 -1 -1 -1 -1 -0 -0 -0 -0 0 1 1 1 2 2 3 3 4 3 3 1 0 -0 -0 -0 -1 -1 -3 -3 -2 -2 -3 -3 -2 -2 -2 -2 -2 -2 -2 -2 -2
0 -1 -1 -1 -0 -1 -1 -0 -0 0 0 1 1 1 1 1 1 2 2 3 3 2 1 1 -0 -1 -1 -2 -2 -1 -2 -3 -3 -3 -2 -2 -2 -2 -2 -2 -2 -2 -2
-0 -1 -1 -1 -1 -1 -0 -0 -0 0 -0 0 1 0 1 1 0 1 2 3 4 3 2 1 -0 -0 -2 -1 -2 -3 -1 -3 -2 -2 -2 -2 -2 -2 -2 -2 -2 -2 -2
-0 -1 -1 -1 -1 -0 -1 -1 0 0 0 0 0 0 1 0 0 -0 0 0 3 5 4 2 1 -1 -1 -1 -2 -3 -3 -3 -3 -2 -1 -1 -1 -1 -2 -1 -1 -1 -1
-0 -0 -1 -0 -0 -0 -0 -0 -0 0 0 0 0 1 0 0 -0 -0 0 1 1 3 4 1 1 -0 -1 -1 -2 -2 -2 -3 -3 -2 -1 -1 -0 0 0 0 0 -0 0
-0 -0 -0 -0 -0 0 -0 0 0 1 1 1 0 0 0 0 0 -0 0 0 1 2 3 2 1 -0 -0 -1 -1 -2 -2 -2 -1 -1 -1 1 2 2 2 3 2 2 2
-0 -0 -0 -0 0 0 -0 0 1 1 1 1 0 0 1 0 0 -0 1 0 0 0 2 3 1 1 -0 -1 -1 -1 -1 -0 -1 -1 0 2 3 3 3 3 3 3 3
0 -0 0 0 0 0 0 -0 2 2 1 1 0 0 0 0 0 0 0 0 1 1 1 1 2 0 0 -0 -0 -1 -0 -0 -1 -1 1 2 3 3 3 3 3 3 4
0 0 0 0 0 0 0 0 2 1 0 0 -0 -0 0 0 0 -0 0 0 0 1 0 1 1 2 1 -0 0 2 2 0 1 1 2 2 3 3 4 3 3 3 4
0 -0 0 0 0 0 0 0 1 1 0 0 0 0 1 3 4 3 0 0 -0 1 2 2 3 2 2 2 2 1 2 1 1 2 4 5 5 5 5 5 5 4 4
0 0 0 1 1 1 4 5 2 1 0 1 1 0 1 3 4 3 2 2 1 1 1 3 2 2 2 2 1 1 2 3 5 3 6 6 5 6 7 7 4 3 3
0 1 1 0 1 1 7 6 3 0 1 1 0 0 0 1 -1 -1 1 1 2 2 2 1 1 1 1 1 1 2 2 2 4 4 6 7 6 7 7 7 5 5 4
1 1 1 0 1 2 7 6 4 -0 1 0 0 0 -0 -0 2 -1 -0 -0 -0 -0 0 2 0 0 -0 -1 -0 0 1 1 3 3 6 8 7 8 7 8 6 6 6
1 1 1 1 1 3 8 6 3 0 1 1 0 -0 -1 2 3 2 -0 -0 -0 -0 1 1 1 1 1 1 0 0 1 3 5 6 6 7 9 8 7 9 8 7 7
1 1 1 1 5 1 7 7 2 1 1 1 1 1 4 3 4 4 -0 0 1 0 0 -0 -1 -0 -0 0 -0 -1 1 3 4 7 6 8 9 9 10 8 9 9 9